Regional Weather Roundup
Issued by NWS

Home | Current Version | Previous Version | Text Only | Print | Product List | Glossary On
Versions: 1 2 3 4 5 6 7 8 9 10 11 12 13 14 15 16 17 18 19 20 21 22 23 24 25 26 27 28
000
ASUS45 KCYS 040810
RWRWY

WYOMING REGIONAL WEATHER ROUNDUP
NATIONAL WEATHER SERVICE CHEYENNE WY
100 AM MST SUN DEC 04 2016

NOTE:  "FAIR" INDICATES FEW OR NO CLOUDS BELOW 12,000 FEET
WITH NO SIGNIFICANT WEATHER AND/OR OBSTRUCTIONS TO VISIBILITY.

WYZ001-040900-
YELLOWSTONE NATIONAL PARK

CITY           SKY/WX    TMP DP  RH WIND       PRES   REMARKS
LK YELLOWSTONE   N/A     18  17  96 W9G17     29.99F WCI   7
W YELLOWSTONE  NOT AVBL

$$
WYZ002>013-054>058-071-098>099-040900-
NORTHERN WYOMING

CITY           SKY/WX    TMP DP  RH WIND       PRES   REMARKS
JACKSON        CLOUDY    27  21  80 S16G24    30.05F WCI  14
CODY           FAIR      34  14  43 W10       29.93F WCI  26
GREYBULL       MOCLDY    25  16  68 SE5       29.97F WCI  19
WORLAND        FAIR      18  14  84 SW6       29.98S WCI  10
SHERIDAN       CLOUDY    32  16  51 W3        29.92F
BUFFALO        FAIR      31   8  38 VRB3      29.92F
GILLETTE       LGT SNOW  31  24  75 W17       29.94R WCI  19
HULETT         CLOUDY    30  21  69 S9        29.91S WCI  22
NEWCASTLE      FAIR      21  18  86 CALM      29.95S

$$
WYZ014>020-022>026-101>103-040900-
CENTRAL WYOMING

CITY           SKY/WX    TMP DP  RH WIND       PRES   REMARKS
BIG PINEY      MOCLDY     7   5  91 CALM      30.09F
PINEDALE       CLOUDY    12  10  92 W7        30.09S WCI   2
DUBOIS         FAIR      23  10  58 NW23G31   29.93F WCI   7
LANDER         FAIR      22   8  55 CALM      29.99F
RIVERTON       FAIR      22  11  62 S10       29.99S WCI  11
CASPER         FAIR      24  11  57 SW17      29.98F WCI  11
DOUGLAS        FAIR      18  11  74 N7        29.99S WCI   9

$$
WYZ021-027>030-104>119-040900-
SOUTHERN WYOMING

CITY           SKY/WX    TMP DP  RH WIND       PRES   REMARKS
EVANSTON       CLOUDY    22  14  71 SW10      30.17F WCI  11
FORT BRIDGER   CLOUDY    25  18  73 SW10      30.17F WCI  15
ROCK SPRINGS   MOCLDY    22  14  71 W26       30.11F WCI   5
DIXON          CLOUDY    21  14  74 CALM      30.19S
RAWLINS        FAIR      19  12  74 W20G26    30.06R WCI   3
SARATOGA       FAIR      21  14  73 SW12      30.09F WCI   9
LARAMIE        FAIR      17   8  67 W12       30.00F WCI   4
CHEYENNE       FAIR      23   8  52 NW13      29.99F WCI  11
TORRINGTON     FAIR      30  14  51 W13       30.00F WCI  20
PINE BLUFFS    FAIR      23  12  63 NW14      30.01S WCI  11

$$




USA.gov is the U.S. government's official web portal to all federal, state and local government web resources and services.